Estación de Olivar Alto

Ultimos registro cada 15 minutos 46
Estación Fecha / Hora Temperatura Humedad Lluvia Velocidad Dirección Radiación Presion
46 Olivar Alto 05-05-2026 11:15 16,3 61 0 0,4 216 193 1014,3
45 Olivar Alto 05-05-2026 11:00 15,9 60 0 0 246 148 1014,2
44 Olivar Alto 05-05-2026 10:45 15,4 62 0 0 255 142 1014,2
43 Olivar Alto 05-05-2026 10:30 14,9 64 0 0,9 302 151 1013,9
42 Olivar Alto 05-05-2026 10:15 14,5 65 0 2,2 352 84 1014
41 Olivar Alto 05-05-2026 10:00 14,2 66 0 1,3 333 104 1014
40 Olivar Alto 05-05-2026 09:45 14,1 66 0 0,4 13 79 1013,7
39 Olivar Alto 05-05-2026 09:30 13,4 67 0 0,9 326 69 1013,7
38 Olivar Alto 05-05-2026 09:15 12,4 73 0 0,4 302 69 1014,2
37 Olivar Alto 05-05-2026 09:00 12,1 74 0 0,4 2 63 1014,5
36 Olivar Alto 05-05-2026 08:45 11,9 74 0 0,4 349 53 1015
35 Olivar Alto 05-05-2026 08:30 11,5 75 0 0,4 340 46 1015,4
34 Olivar Alto 05-05-2026 08:15 10,8 78 0 0,4 21 46 1015,3
33 Olivar Alto 05-05-2026 08:00 10,3 81 0 0 34 19 1015,9
32 Olivar Alto 05-05-2026 07:45 10,1 82 0 1,8 340 7 1016,3
31 Olivar Alto 05-05-2026 07:30 9,8 84 0 0 21 0 1016,5
30 Olivar Alto 05-05-2026 07:15 9,3 88 0 0,9 318 0 1017,4
29 Olivar Alto 05-05-2026 07:00 9,3 89 0 0 19 0 1017,2
28 Olivar Alto 05-05-2026 06:45 9,3 88 0 0 19 0 1017,2
27 Olivar Alto 05-05-2026 06:30 9,4 87 0 0 19 0 1017,2
26 Olivar Alto 05-05-2026 06:15 9,4 87 0 0 19 0 1017,1
25 Olivar Alto 05-05-2026 06:00 9,6 86 0 0 19 0 1016,5
24 Olivar Alto 05-05-2026 05:45 9,6 86 0 0 19 0 1016,4
23 Olivar Alto 05-05-2026 05:30 9,5 87 0 0 19 0 1016
22 Olivar Alto 05-05-2026 05:15 9,4 85 0 0 19 0 1016
21 Olivar Alto 05-05-2026 05:00 9,3 86 0 0 19 0 1015,5
20 Olivar Alto 05-05-2026 04:45 9,3 85 0 0 19 0 1015,2
19 Olivar Alto 05-05-2026 04:30 9,3 85 0 0 19 0 1015,1
18 Olivar Alto 05-05-2026 04:15 9,2 84 0 0 19 0 1015,2
17 Olivar Alto 05-05-2026 04:00 9,2 85 0 0 19 0 1015
16 Olivar Alto 05-05-2026 03:45 9,3 85 0 0 19 0 1015
15 Olivar Alto 05-05-2026 03:30 9,4 84 0 0 19 0 1014,9
14 Olivar Alto 05-05-2026 03:15 9,6 84 0 0 19 0 1015,1
13 Olivar Alto 05-05-2026 03:00 9,6 85 0 0 19 0 1014,8
12 Olivar Alto 05-05-2026 02:45 9,5 84 0 0 18 0 1015,2
11 Olivar Alto 05-05-2026 02:30 9,4 84 0 0 18 0 1015,7
10 Olivar Alto 05-05-2026 02:15 9,5 84 0 0 19 0 1015,5
9 Olivar Alto 05-05-2026 02:00 9,6 83 0 0 19 0 1015,9
8 Olivar Alto 05-05-2026 01:45 9,8 82 0 0 19 0 1016,2
7 Olivar Alto 05-05-2026 01:30 9,7 81 0 0 19 0 1016,2
6 Olivar Alto 05-05-2026 01:15 9,6 81 0 0 19 0 1016,2
5 Olivar Alto 05-05-2026 01:00 9,4 82 0 0 36 0 1016,2
4 Olivar Alto 05-05-2026 00:45 9,1 84 0 0 139 0 1016,1
3 Olivar Alto 05-05-2026 00:30 8,8 85 0 0 140 0 1016,2
2 Olivar Alto 05-05-2026 00:15 8,6 85 0 0 140 0 1016,4
1 Olivar Alto 05-05-2026 00:00 8,6 85 0 0 140 0 1016,4